Powrót do katalogu

STARLINK-5541

AktywnyŁącznośćVLEO
NORAD 56475·PAYLOAD·🇺🇸 United States

Wystrzelony May 10, 2023 z Vandenberg Space Force Base

Loading…

Następne Przeloty (najbliższe 24 godziny)

TLE

ŚwieżeSource: CelesTrak SupGP

Epoka: Sep 14, 2026, 21:42 UTC

1 56475C 23064AD  26257.90465278  .00398200  00000+0  31307-1 0  2578
2 56475  70.0004   7.3905 0003069 275.0896  10.5603 15.00583809    14

Śledź STARLINK-5541 w czasie rzeczywistym z AllMySat

Download on the App Store